Regional Weather Roundup
Issued by NWS

Home | Current Version | Previous Version | Text Only | Print | Product List | Glossary Off
Versions: 1 2 3 4 5 6 7 8 9 10 11 12 13 14 15 16 17 18 19 20 21 22 23 24 25 26 27 28 29 30 31 32 33 34 35 36 37 38 39 40 41 42 43 44 45 46 47 48 49 50

000
ASUS43 KOAX 251202
RWRNE

WEATHER ROUNDUP FOR NEBRASKA
NATIONAL WEATHER SERVICE OMAHA NE
700 AM CDT FRI JUL 25 2014

NOTES: SATELLITE DATA IS BEING USED TO AUGMENT CLOUD COVER ABOVE
       12000 FEET.
       "FAIR" INDICATES FEW OR NO CLOUDS BELOW 12,000 FEET WITH NO
       SIGNIFICANT WEATHER AND/OR OBSTRUCTIONS TO VISIBILITY.

  * THESE STATIONS DO NOT REPORT WEATHER SUCH AS RAIN...SNOW OR FOG.

NEZ001>004-019>022-054>056-251300-
NEBRASKA PANHANDLE

CITY           SKY/WX    TMP DP  RH WIND       PRES   REMARKS
SCOTTSBLUFF    CLEAR     63  55  75 W5        30.00R
6HR MIN TEMP:  63; 6HR MAX TEMP:  83;

ALLIANCE       CLEAR     65  59  81 N10       29.97R
6HR MIN TEMP:  64; 6HR MAX TEMP:  76;

CHADRON        CLEAR     64  58  80 NW5       29.98R
6HR MIN TEMP:  62; 6HR MAX TEMP:  82;

KIMBALL        PTCLDY    68  49  50 NW10      30.02R
SIDNEY         CLEAR     65  53  65 NW13      29.99R
6HR MIN TEMP:  65; 6HR MAX TEMP:  73;

$$

NEZ057>060-069>072-079>082-251300-
SOUTHWEST NEBRASKA

CITY           SKY/WX    TMP DP  RH WIND       PRES   REMARKS
NORTH PLATTE   CLEAR     67  58  72 SW6       29.83R
6HR MIN TEMP:  62; 6HR MAX TEMP:  77;

IMPERIAL       CLEAR     64  57  78 W5        29.87R
6HR MIN TEMP:  64; 6HR MAX TEMP:  73;

LEXINGTON      CLEAR     72  60  66 W7        29.79R
MCCOOK         PTCLDY    68  57  68 SW3       29.83S
6HR MIN TEMP:  64; 6HR MAX TEMP:  80;

OGALLALA       CLEAR     59  56  89 CALM      29.86S
$$

NEZ005>010-023>029-035>040-094-251300-
NORTH CENTRAL NEBRASKA

CITY           SKY/WX    TMP DP  RH WIND       PRES   REMARKS
VALENTINE      PTCLDY    70  62  76 NW12      29.81R
6HR MIN TEMP:  66; 6HR MAX TEMP:  75; 6HR PCP: TRACE;

AINSWORTH      CLEAR     69  59  71 W12       29.77R
BROKEN BOW     CLEAR     70  66  87 W5        29.76S
6HR MIN TEMP:  69; 6HR MAX TEMP:  82; 6HR PCP: TRACE;

O`NEILL        CLEAR     70  66  87 CALM      29.74R
ORD            CLEAR     68  66  93 SE5       29.73S FOG
6HR MIN TEMP:  66; 6HR MAX TEMP:  75;

THEDFORD       CLEAR     71  58  63 W13       29.82R
$$

NEZ041-046>049-061>064-073>077-083>087-251300-
SOUTH CENTRAL NEBRASKA

CITY           SKY/WX    TMP DP  RH WIND       PRES   REMARKS
GRAND ISLAND   CLEAR     79  67  66 SW18G25   29.75R
6HR MIN TEMP:  75; 6HR MAX TEMP:  81;

AURORA         PTCLDY    77  71  81 SW10      29.75S
HASTINGS       CLEAR     78  65  63 SW14G21   29.76R
6HR MIN TEMP:  76; 6HR MAX TEMP:  80; 6HR PCP: TRACE;

HEBRON         PTCLDY    77  67  72 SW14G21   29.77S
HOLDREGE       CLEAR     75  58  56 SW8       29.80R
KEARNEY *      CLEAR     75  63  64 SW10      29.78R
YORK           PTCLDY    73  72  94 SW10      29.75S
$$

NEZ011>018-030>034-042>045-251300-
NORTHEAST NEBRASKA

CITY           SKY/WX    TMP DP  RH WIND       PRES   REMARKS
NORFOLK        CLEAR     72  68  87 E5        29.74R
6HR MIN TEMP:  71; 6HR MAX TEMP:  75; 6HR PCP: TRACE;

ALBION         CLEAR     70  66  88 CALM      29.73S
BLAIR          CLOUDY    73  65  76 SE12      29.78R
COLUMBUS *     CLEAR     73  66  78 S6        29.74R
FREMONT        PTCLDY    74  68  81 SE10      29.74F
TEKAMAH        MOCLDY    78  68  71 SE14G25   29.78R
6HR MIN TEMP:  72; 6HR MAX TEMP:  80; 6HR PCP: TRACE;

WAYNE          PTCLDY    72  69  89 E8        29.78S
$$

NEZ050>053-065>068-078-088>093-251300-
SOUTHEAST NEBRASKA

CITY           SKY/WX    TMP DP  RH WIND       PRES   REMARKS
LINCOLN        CLEAR     74  68  81 S10       29.77R
6HR MIN TEMP:  72; 6HR MAX TEMP:  78; 6HR PCP:  0.04;

OMAHA EPPLEY   CLOUDY    75  64  68 SE16      29.79R
6HR MIN TEMP:  73; 6HR MAX TEMP:  83; 6HR PCP: TRACE;

BEATRICE       CLEAR     75  70  85 S8        29.78R
FALLS CITY     CLOUDY    71  64  78 SE10      29.82F
6HR MIN TEMP:  70; 6HR MAX TEMP:  74;

NEBRASKA CITY  MOCLDY    71  64  78 S14       29.80S
PLATTSMOUTH    MOCLDY    71  63  75 SE6       29.80R
$$

NEZ044-045-051>053-067-251300-
OMAHA AREA

CITY           SKY/WX    TMP DP  RH WIND       PRES   REMARKS
OMAHA EPPLEY   CLOUDY    75  64  68 SE16      29.79R
6HR MIN TEMP:  73; 6HR MAX TEMP:  83; 6HR PCP: TRACE;

BLAIR          CLOUDY    73  65  76 SE12      29.78R
FREMONT        PTCLDY    74  68  81 SE10      29.74F
MILLARD        MOCLDY    73  66  81 SE10      29.78R
OFFUTT AFB     CLOUDY    71  66  84 SE14      29.79R
PLATTSMOUTH    MOCLDY    71  63  75 SE6       29.80R
WAHOO          FAIR      71  67  86 S12       29.74F
$$



USA.gov is the U.S. government's official web portal to all federal, state and local government web resources and services.